Location: Deep Valley
(39.7548°N, 80.4695°W)
Time: 13:43:27
(UTC+00:00)

ISS - Pass Details

Date: 04 December 2020
Orbit: 418 x 419 km, 51.6° (Epoch: 18 January)

Event Time Altitude Azimuth Distance (km) Brightness Sun altitude
Rises 00:09:45 0° 312° (NW) 2,367 0.6 -24.8°
Reaches altitude 10° 00:11:57 10° 321° (NW) 1,501 -0.6 -25.2°
Enters shadow 00:12:28 13° 324° (NW) 1,311 -1.0 -25.3°
